Snowfall_Accumulation
0.0 0.0 0.0 0.0 0.0 0.0 0.0 0.0 0.0 0.0 0.0 0.0 0.0 0.0 0.0 0.0 0.0 0.0 0.0 0.0 0.0 0.0 0.0 0.0 0.0 0.0 0.0 0.0 0.0 0.0 0.0 0.0 0.0 0.0 0.0 0.0 0.0 0.0 0.0 0.0 0.0 0.0 0.0
0.0 0.0 0.0 0.0 0.0 0.0 0.0 0.0 0.0 0.0 0.0 0.0 0.0 0.0 0.0 0.0 0.0 0.0 0.0 0.0 0.0 0.0 0.0 0.0 0.0 0.0 0.0 0.0 0.0 0.0 0.0 0.0 0.0 0.0 0.0 0.2 0.1 0.0 0.0 0.0 0.0 0.0 0.0
0.0 0.0 0.0 0.0 0.0 0.0 0.0 0.0 0.0 0.0 0.0 0.0 0.0 0.0 0.0 0.0 0.0 0.0 0.0 0.0 0.0 0.0 0.0 0.0 0.0 0.0 0.0 0.0 0.0 0.0 0.0 0.0 0.0 0.1 0.2 0.2 0.2 0.1 0.1 0.1 0.0 0.0 0.0
0.0 0.0 0.0 0.0 0.0 0.0 0.0 0.0 0.0 0.0 0.0 0.0 0.0 0.0 0.0 0.0 0.0 0.0 0.0 0.0 0.0 0.0 0.0 0.0 0.0 0.0 0.0 0.0 0.0 0.0 0.0 0.1 0.1 0.2 0.2 0.2 0.2 0.4 0.3 0.4 0.8 0.5 0.5
0.0 0.0 0.0 0.0 0.0 0.0 0.0 0.0 0.0 0.0 0.0 0.0 0.0 0.0 0.0 0.0 0.0 0.0 0.0 0.0 0.0 0.0 0.0 0.0 0.0 0.0 nan nan 0.1 0.0 0.0 0.1 0.3 0.4 0.4 0.4 0.3 0.6 0.7 0.6 1.2 0.9 0.6
0.0 0.0 0.0 0.0 0.0 0.0 0.0 0.0 0.0 0.0 0.0 0.0 0.0 0.0 0.0 0.0 nan nan 0.0 0.0 0.0 0.0 0.0 0.0 0.0 0.0 0.0 nan nan nan nan 0.0 0.1 0.8 0.5 0.4 0.1 0.7 1.0 1.5 1.9 2.9 3.3
0.0 0.0 0.0 0.0 0.1 0.0 0.0 0.0 0.0 0.0 0.1 0.1 0.1 0.1 0.1 0.0 nan nan nan 0.0 0.0 0.0 0.0 0.0 0.0 0.0 0.1 0.0 nan nan nan nan nan 0.0 0.1 0.3 0.7 0.3 0.7 1.5 1.2 2.3 1.7
0.1 0.1 0.1 0.2 0.4 0.5 0.5 0.4 0.3 0.2 0.2 0.2 0.1 0.0 0.0 0.0 nan nan nan 0.0 0.0 0.0 0.0 0.0 0.0 0.0 0.0 0.1 0.1 0.1 0.1 0.1 0.1 0.0 0.1 0.1 0.1 0.1 0.1 0.3 0.6 1.0 1.9
0.4 0.6 0.6 0.5 0.6 0.5 0.6 0.5 0.5 0.5 0.3 0.2 0.1 0.3 0.2 0.1 nan nan 0.0 0.0 0.1 0.1 0.0 0.0 0.0 0.1 nan nan 0.2 0.9 1.4 0.8 nan nan nan nan nan nan nan 2.0 7.7 9.7 6.1
0.6 0.7 0.6 0.5 0.9 0.8 0.8 1.0 1.0 0.8 0.9 1.6 0.6 0.6 0.1 0.5 nan nan nan 1.0 0.6 1.1 0.2 0.1 0.6 0.1 nan nan 0.5 1.5 3.7 1.4 1.1 2.0 1.0 0.2 nan nan nan 0.2 2.0 8.6 6.5
1.8 1.5 1.5 1.3 1.6 1.0 1.1 1.0 1.5 1.7 1.2 1.8 2.0 1.2 1.1 0.4 0.2 nan nan 0.5 1.6 2.7 2.7 2.1 1.2 nan nan nan nan 1.8 2.6 1.2 2.8 2.7 2.6 2.6 2.0 1.6 1.9 1.3 0.6 1.9 6.0
2.0 2.3 2.5 2.5 2.0 1.7 2.8 2.3 3.1 2.7 3.1 3.1 2.9 2.7 2.2 0.8 nan nan nan nan nan 4.4 2.7 2.0 1.6 nan nan nan 1.3 nan nan 1.7 4.7 5.7 6.7 6.3 4.6 3.9 2.6 1.8 0.6 0.7 0.8
4.3 5.4 5.0 4.1 3.3 2.9 3.8 3.4 4.9 3.5 4.9 3.3 4.0 3.8 2.9 2.5 2.0 nan nan nan nan 3.1 2.1 2.1 nan nan nan nan nan nan 1.6 4.7 6.0 10.2 7.8 5.0 3.6 2.8 1.6 2.3 1.4 1.8 1.5
6.7 4.4 3.6 4.1 3.3 3.7 3.9 4.1 5.8 5.6 5.0 5.0 5.8 5.9 4.2 4.3 3.4 2.8 3.6 2.2 2.5 3.7 nan 3.0 nan 3.2 nan nan 3.3 3.6 5.5 6.2 8.0 9.3 8.3 5.0 3.4 4.8 6.4 4.9 7.5 6.9 10.9
5.9 4.3 4.6 5.1 5.3 4.4 3.7 4.8 5.3 3.3 6.1 10.1 10.7 7.3 10.8 11.4 8.3 3.7 7.3 9.4 7.5 7.1 6.1 10.4 9.5 7.0 7.4 7.1 8.6 7.6 6.7 7.5 9.1 8.8 10.0 9.3 9.1 9.1 9.3 7.5 8.5 10.9 14.2
4.5 5.9 4.8 4.9 4.6 4.5 5.5 6.0 nan nan nan nan nan 7.7 8.8 nan nan nan nan nan nan nan 17.8 20.6 13.6 12.2 10.8 11.0 12.4 11.7 10.5 9.0 10.3 11.4 11.8 11.3 12.3 11.4 12.0 12.3 11.7 14.0 16.0
6.9 5.6 6.6 5.6 6.9 8.0 8.8 10.1 11.0 8.8 nan nan nan nan nan nan nan nan nan nan nan nan 28.5 19.2 18.7 14.7 14.5 12.7 13.8 13.1 12.7 11.7 11.0 13.1 12.9 14.1 14.8 15.4 15.5 15.0 13.1 12.5 16.0
8.6 3.1 9.9 10.0 10.0 11.0 11.4 12.0 12.2 13.2 14.5 12.9 nan nan nan nan nan nan nan nan 26.3 nan 24.2 26.9 23.7 20.3 17.8 17.0 15.3 15.4 14.9 13.9 13.4 14.7 14.9 18.4 19.4 20.9 19.1 18.3 15.6 18.3 17.1
11.8 10.9 11.8 12.5 12.7 12.9 13.5 12.6 12.9 13.1 13.9 15.9 15.1 15.1 8.5 nan nan nan nan 20.0 27.0 25.0 25.2 25.8 23.5 22.8 20.7 21.1 19.8 20.7 18.6 18.9 18.7 22.1 21.7 23.2 21.5 22.0 20.8 16.4 14.2 9.1 10.3
15.0 6.0 11.3 16.7 15.8 14.7 12.5 14.3 13.6 13.9 14.6 16.1 16.2 15.7 20.7 18.0 24.2 25.6 22.6 27.7 27.4 25.7 23.9 25.4 25.8 27.6 27.4 25.5 25.0 23.7 23.5 23.8 22.2 23.3 23.3 22.0 20.5 21.3 16.4 20.2 18.1 16.5 17.1
19.0 17.6 4.2 17.1 19.4 19.6 19.8 17.6 15.1 17.5 16.2 17.6 15.6 15.2 nan 20.9 21.6 23.3 25.9 24.9 27.1 28.9 25.7 27.0 28.0 32.5 32.4 34.4 30.3 29.0 27.7 19.9 23.0 24.9 25.8 25.2 24.5 28.2 19.4 14.4 18.2 19.2 19.1
18.8 19.5 19.7 21.6 17.6 18.0 19.4 15.9 16.9 17.0 16.8 15.9 15.1 15.5 nan 17.4 19.6 20.3 20.6 24.7 27.1 27.0 29.1 32.5 31.8 33.6 31.3 29.8 27.8 26.2 23.1 25.8 27.1 26.4 23.1 23.7 26.4 23.8 23.1 17.7 18.0 16.5 20.0
17.6 16.7 18.0 18.8 18.6 8.3 21.8 23.5 21.0 19.9 18.0 17.7 16.0 15.4 17.2 20.8 18.3 17.9 24.0 26.4 22.6 21.7 23.8 24.9 23.5 23.1 21.6 23.9 21.7 21.0 22.6 24.7 25.2 30.5 23.7 24.4 24.0 26.3 24.0 21.7 19.8 21.3 20.1
19.0 19.3 18.7 20.1 18.1 16.4 18.1 18.7 16.8 6.9 16.9 17.7 25.1 21.3 14.1 17.4 23.1 19.0 19.2 21.8 18.4 27.5 21.1 22.1 19.2 18.9 20.0 27.1 32.2 31.6 33.5 34.7 34.1 32.0 29.5 22.5 22.4 18.7 20.1 21.8 17.9 16.9 15.2
19.0 16.8 16.5 15.5 20.8 17.3 16.5 18.9 13.6 17.6 20.2 16.5 19.5 15.1 15.9 15.4 16.7 21.7 20.4 17.2 19.0 17.6 15.4 15.5 15.6 15.9 16.3 16.8 22.1 27.0 26.1 4.5 18.3 4.9 26.7 20.3 23.3 23.7 23.1 19.8 18.2 16.1 14.1
14.1 14.7 15.2 15.6 15.5 16.6 17.2 16.9 17.3 14.5 17.7 18.6 17.8 18.1 16.0 16.0 15.7 18.1 17.1 17.2 14.4 14.8 15.0 15.9 15.4 13.7 13.0 14.7 15.7 6.8 4.2 3.7 22.3 4.4 23.8 20.0 22.4 21.4 21.4 21.5 20.1 18.6 15.3
Water_Equivalent
0.00 0.00 0.00 0.00 0.00 0.00 0.00 0.00 0.00 0.00 0.00 0.00 0.00 0.00 0.00 0.00 0.00 0.00 0.00 0.00 0.00 0.00 0.00 0.00 0.00 0.00 0.00 0.00 0.00 0.00 0.00 0.00 0.00 0.01 0.00 0.00 0.00 0.00 0.00 0.00 0.00 0.00 0.00
0.00 0.00 0.00 0.00 0.00 0.00 0.00 0.00 0.00 0.00 0.00 0.00 0.00 0.00 0.00 0.00 0.00 0.00 0.00 0.00 0.00 0.00 0.00 0.00 0.00 0.00 0.00 0.00 0.00 0.00 0.00 0.00 0.00 0.00 0.00 0.08 0.04 0.00 0.00 0.00 0.00 0.00 0.00
0.00 0.00 0.00 0.00 0.00 0.00 0.00 0.00 0.00 0.00 0.00 0.00 0.00 0.00 0.00 0.00 0.00 0.00 0.00 0.00 0.00 0.00 0.00 0.00 0.00 0.00 0.00 0.00 0.00 0.00 0.00 0.00 0.00 0.02 0.07 0.07 0.07 0.03 0.03 0.03 0.01 0.01 0.00
0.00 0.00 0.00 0.00 0.00 0.00 0.00 0.00 0.00 0.00 0.00 0.00 0.00 0.00 0.00 0.00 0.00 0.00 0.00 0.00 0.00 0.00 0.00 0.00 0.00 0.00 0.00 0.00 0.00 0.00 0.00 0.03 0.03 0.06 0.08 0.08 0.09 0.13 0.13 0.16 0.22 0.17 0.17
0.00 0.00 0.00 0.00 0.00 0.00 0.00 0.00 0.00 0.00 0.00 0.00 0.00 0.00 0.00 0.00 0.00 0.00 0.00 0.00 0.00 0.00 0.00 0.00 0.00 0.00 nan nan 0.02 0.01 0.00 0.03 0.10 0.14 0.15 0.14 0.12 0.16 0.22 0.20 0.36 0.25 0.17
0.00 0.00 0.00 0.00 0.00 0.00 0.00 0.00 0.01 0.00 0.00 0.00 0.00 0.00 0.00 0.00 nan nan 0.00 0.00 0.00 0.00 0.00 0.00 0.00 0.00 0.00 nan nan nan nan 0.01 0.02 0.29 0.18 0.13 0.03 0.23 0.34 0.41 0.48 0.58 0.64
0.00 0.01 0.01 0.01 0.01 0.01 0.01 0.01 0.01 0.01 0.01 0.02 0.02 0.01 0.01 0.01 nan nan nan 0.02 0.01 0.00 0.00 0.00 0.00 0.00 0.02 0.01 nan nan nan nan nan 0.01 0.03 0.08 0.15 0.07 0.16 0.37 0.29 0.57 0.41
0.01 0.02 0.03 0.03 0.06 0.07 0.07 0.06 0.05 0.03 0.03 0.03 0.02 0.01 0.01 0.00 nan nan nan 0.00 0.00 0.00 0.01 0.01 0.01 0.02 0.01 0.01 0.02 0.03 0.03 0.03 0.03 0.01 0.03 0.04 0.03 0.02 0.03 0.05 0.12 0.24 0.43
0.06 0.07 0.08 0.07 0.09 0.07 0.10 0.07 0.07 0.08 0.06 0.04 0.03 0.08 0.07 0.05 nan nan 0.01 0.02 0.02 0.02 0.01 0.01 0.01 0.02 nan nan 0.06 0.27 0.43 0.26 nan nan nan nan nan nan nan 0.62 2.00 2.33 1.26
0.07 0.07 0.07 0.07 0.14 0.12 0.10 0.14 0.15 0.13 0.15 0.32 0.12 0.14 0.04 0.16 nan nan nan 0.34 0.19 0.30 0.06 0.03 0.20 0.03 nan nan 0.12 0.42 0.91 0.35 0.36 0.65 0.33 0.07 nan nan nan 0.06 0.55 1.93 1.27
0.18 0.16 0.17 0.16 0.25 0.14 0.17 0.16 0.26 0.33 0.21 0.38 0.40 0.27 0.28 0.13 0.05 nan nan 0.16 0.47 0.71 0.70 0.53 0.36 nan nan nan nan 0.51 0.61 0.36 0.92 0.80 0.75 0.77 0.56 0.44 0.51 0.36 0.16 0.48 1.18
0.24 0.26 0.31 0.40 0.32 0.28 0.60 0.42 0.63 0.53 0.59 0.56 0.60 0.51 0.47 0.18 nan nan nan nan nan 1.17 0.65 0.53 0.43 nan nan nan 0.41 nan nan 0.55 1.39 1.61 1.45 1.21 0.89 0.74 0.50 0.34 0.11 0.15 0.17
0.55 0.77 0.75 0.66 0.62 0.62 0.89 0.64 0.92 0.73 0.90 0.54 0.72 0.67 0.50 0.46 0.46 nan nan nan nan 0.81 0.57 0.50 nan nan nan nan nan nan 0.51 1.16 1.46 1.81 1.27 0.80 0.58 0.45 0.25 0.37 0.23 0.30 0.26
1.01 0.57 0.45 0.59 0.51 0.59 0.75 0.81 1.18 1.03 0.87 0.91 1.00 0.94 0.64 0.65 0.61 0.58 0.89 0.71 0.76 0.95 nan 0.75 nan 0.67 nan nan 0.72 0.68 0.92 1.04 1.19 1.27 1.03 0.64 0.54 0.75 0.96 0.76 1.02 0.96 1.54
0.72 0.42 0.53 0.72 0.80 0.50 0.43 0.76 0.76 0.48 1.04 1.71 1.97 1.37 1.61 1.60 1.28 0.70 1.45 1.76 1.62 1.57 1.52 1.93 1.58 1.09 1.05 0.98 1.18 1.09 0.99 1.12 1.25 1.24 1.32 1.19 1.16 1.23 1.19 1.07 1.19 1.50 1.79
0.45 0.62 0.59 0.59 0.54 0.51 0.60 0.67 nan nan nan nan nan 1.36 1.72 nan nan nan nan nan nan nan 3.00 3.04 1.71 1.49 1.22 1.20 1.33 1.24 1.13 1.12 1.22 1.39 1.46 1.41 1.50 1.36 1.39 1.49 1.46 1.70 1.84
0.83 0.57 0.70 0.64 0.71 0.84 0.95 1.09 1.18 1.03 nan nan nan nan nan nan nan nan nan nan nan nan 4.40 2.51 2.12 1.57 1.48 1.23 1.37 1.27 1.23 1.15 1.05 1.40 1.38 1.52 1.64 1.75 1.81 1.72 1.49 1.43 1.91
0.94 1.01 1.05 1.02 1.02 1.13 1.19 1.25 1.28 1.39 1.53 1.35 nan nan nan nan nan nan nan nan 3.71 nan 3.24 3.32 2.78 2.24 1.80 1.65 1.44 1.43 1.39 1.33 1.30 1.45 1.51 1.99 2.20 2.44 2.22 2.15 1.78 2.16 2.02
1.18 1.06 1.18 1.25 1.27 1.32 1.37 1.24 1.29 1.29 1.35 1.60 1.54 1.57 1.44 nan nan nan nan 2.59 3.45 2.96 2.94 3.03 2.56 2.39 2.03 2.12 1.97 2.17 1.82 1.86 1.83 2.38 2.37 2.63 2.44 2.57 2.47 1.84 1.53 1.36 1.49
1.40 1.44 1.38 1.64 1.47 1.36 1.13 1.32 1.24 1.27 1.32 1.50 1.54 1.47 2.22 2.28 2.97 3.08 2.59 3.51 3.41 3.02 2.69 2.90 2.92 3.22 3.22 2.93 2.86 2.64 2.61 2.66 2.39 2.55 2.55 2.42 2.29 2.47 1.69 2.37 2.08 1.76 1.97
1.80 1.59 1.40 1.50 1.79 1.81 1.85 1.54 1.25 1.59 1.43 1.63 1.37 1.44 nan 2.18 2.26 2.51 2.92 2.70 3.12 3.38 2.79 3.04 3.15 3.98 4.08 4.49 3.69 3.49 3.22 2.00 2.50 2.78 2.98 2.90 2.81 3.48 2.15 1.40 2.05 2.25 2.21
1.76 1.85 1.87 2.02 1.48 1.53 1.76 1.30 1.42 1.43 1.39 1.28 1.15 1.29 nan 1.53 1.79 1.88 1.98 2.63 3.08 3.05 3.42 4.01 3.91 4.30 3.84 3.56 3.18 2.95 2.43 2.92 3.20 2.98 2.38 2.50 2.99 2.61 2.61 1.80 1.90 1.68 2.28
1.50 1.33 1.47 1.51 1.50 1.60 1.81 2.07 1.78 1.70 1.50 1.58 1.40 1.32 1.53 2.07 1.72 1.64 2.54 2.86 2.25 2.10 2.42 2.59 2.42 2.37 2.21 2.59 2.28 2.20 2.37 2.70 2.82 3.80 2.50 2.63 2.55 3.01 2.72 2.41 2.15 2.38 2.27
1.48 1.53 1.48 1.82 1.58 1.33 1.57 1.67 1.43 1.59 1.49 1.61 2.65 2.12 1.21 1.59 2.38 1.73 1.82 2.21 1.77 3.19 2.20 2.37 1.91 1.88 2.10 3.32 4.30 4.22 4.60 4.86 4.61 4.18 3.70 2.38 2.37 2.11 2.07 2.47 1.94 1.90 1.56
1.64 1.37 1.39 1.28 2.01 1.55 1.45 1.78 1.17 1.69 2.04 1.57 2.00 1.39 1.43 1.34 1.53 2.31 2.12 1.68 1.94 1.78 1.50 1.50 1.56 1.62 1.67 1.77 2.57 3.40 3.64 1.49 2.67 1.63 3.17 2.11 2.57 2.62 2.50 2.12 1.97 1.65 1.45
1.20 1.27 1.32 1.38 1.35 1.52 1.62 1.58 1.65 1.28 1.70 1.83 1.70 1.73 1.46 1.46 1.47 1.84 1.69 1.70 1.35 1.42 1.48 1.62 1.59 1.38 1.30 1.50 1.63 1.71 1.39 1.23 2.83 1.44 2.59 2.02 2.34 2.13 2.09 2.13 1.96 1.86 1.49
SL_Ratio
nan nan nan nan nan nan nan nan nan nan nan nan nan nan nan nan nan nan nan nan nan nan nan nan nan nan nan nan nan nan nan nan nan 2.9 nan nan nan nan nan nan nan nan nan
nan nan nan nan nan nan nan nan nan nan nan nan nan nan nan nan nan nan nan nan nan nan nan nan nan nan nan nan nan nan nan nan nan nan 3.3 2.9 3.0 nan nan nan nan nan nan
nan nan nan nan nan nan nan nan nan nan nan nan nan nan nan nan nan nan nan nan nan nan nan nan nan nan nan nan nan nan nan nan nan 2.9 2.8 2.7 2.8 2.6 2.5 2.6 2.7 2.6 nan
nan nan nan nan nan nan nan nan nan nan nan nan nan nan nan nan nan nan nan nan nan nan nan nan nan nan nan nan nan nan nan 2.5 2.6 2.6 2.5 2.6 2.7 2.7 2.5 2.7 3.5 2.9 2.8
nan nan nan nan nan nan nan nan nan nan nan nan nan nan nan nan nan nan nan nan nan nan nan nan nan nan nan nan 2.9 3.3 3.6 2.7 2.6 2.7 2.7 2.8 2.9 3.6 3.4 3.1 3.4 3.5 3.6
nan nan nan nan 2.9 10.0 0.0 2.7 2.5 2.2 2.5 2.5 2.9 2.9 nan nan nan nan nan nan nan nan nan 0.0 nan 2.7 0.0 nan nan nan nan 5.6 4.3 2.9 3.1 3.2 3.2 3.0 3.1 3.7 4.0 4.9 5.1
2.5 3.6 3.6 3.9 3.7 3.2 2.7 2.6 2.8 3.9 4.7 5.2 6.0 5.5 4.7 5.7 nan nan nan 2.4 2.5 nan 2.5 2.0 2.3 nan 2.5 3.0 nan nan nan nan nan 4.8 4.0 3.5 4.4 5.0 4.4 4.1 4.2 4.1 4.0
4.8 4.2 4.5 5.2 6.1 6.9 6.8 6.7 6.1 6.0 5.7 6.2 5.0 3.8 3.2 3.8 nan nan nan 3.3 4.0 2.7 2.5 2.6 2.4 2.7 2.6 3.6 3.6 2.6 2.5 2.5 2.5 2.6 2.9 2.9 3.5 4.1 4.1 4.9 4.8 4.4 4.3
6.4 8.1 8.1 7.3 6.4 6.9 5.9 6.7 7.0 6.4 5.8 3.9 3.6 3.6 3.3 3.0 nan nan 2.7 2.5 2.8 2.8 2.8 2.6 2.7 3.2 nan nan 3.4 3.2 3.2 2.9 nan nan nan nan nan nan nan 3.2 3.8 4.2 4.8
9.3 9.1 8.2 7.3 6.3 7.1 7.6 6.8 6.6 5.7 6.1 4.9 4.9 3.9 3.5 3.2 nan nan nan 2.9 3.3 3.5 3.3 3.1 3.0 3.1 nan nan 4.0 3.5 4.1 4.1 3.2 3.0 3.0 2.9 nan nan nan 3.3 3.6 4.5 5.1
9.6 9.5 8.8 8.3 6.5 7.5 6.5 6.5 5.7 5.1 5.7 4.7 5.0 4.6 3.8 3.3 3.0 nan nan 3.1 3.4 3.8 3.8 3.9 3.4 nan nan nan nan 3.5 4.3 3.4 3.1 3.3 3.4 3.4 3.5 3.6 3.7 3.5 3.8 3.9 5.1
8.6 8.7 8.2 6.3 6.2 6.0 4.6 5.4 4.9 5.0 5.2 5.5 4.9 5.2 4.7 4.7 nan nan nan nan nan 3.8 4.1 3.9 3.7 nan nan nan 3.1 nan nan 3.1 3.4 3.6 4.6 5.2 5.2 5.3 5.1 5.3 5.4 4.7 4.6
7.8 6.9 6.6 6.3 5.3 4.6 4.3 5.3 5.3 4.8 5.4 6.2 5.6 5.6 5.7 5.4 4.2 nan nan nan nan 3.8 3.7 4.1 nan nan nan nan nan nan 3.0 4.0 4.1 5.6 6.2 6.2 6.2 6.3 6.4 6.3 6.3 5.8 5.7
6.7 7.6 7.9 7.0 6.4 6.2 5.2 5.0 4.9 5.4 5.8 5.5 5.8 6.3 6.5 6.6 5.6 4.8 4.0 3.1 3.3 3.9 nan 4.0 nan 4.8 nan nan 4.6 5.3 5.9 6.0 6.7 7.3 8.0 7.8 6.3 6.4 6.7 6.4 7.4 7.2 7.0
8.2 10.4 8.7 7.1 6.6 8.8 8.6 6.3 6.9 6.8 5.9 5.9 5.5 5.4 6.7 7.1 6.5 5.3 5.0 5.4 4.6 4.5 4.0 5.4 6.0 6.5 7.1 7.3 7.3 7.0 6.7 6.7 7.3 7.2 7.6 7.8 7.8 7.4 7.8 7.1 7.2 7.3 7.9
9.9 9.5 8.2 8.3 8.6 8.8 9.3 8.9 nan nan nan nan nan 5.7 5.1 nan nan nan nan nan nan nan 5.9 6.8 7.9 8.2 8.9 9.2 9.3 9.4 9.3 8.1 8.4 8.2 8.1 8.0 8.2 8.4 8.6 8.2 8.0 8.2 8.7
8.3 9.8 9.5 8.7 9.8 9.5 9.2 9.3 9.3 8.5 nan nan nan nan nan nan nan nan nan nan nan nan 6.5 7.7 8.8 9.4 9.8 10.3 10.1 10.3 10.3 10.1 10.5 9.4 9.3 9.2 9.0 8.8 8.5 8.7 8.8 8.7 8.3
9.1 3.0 9.5 9.8 9.7 9.7 9.6 9.6 9.5 9.5 9.4 9.6 nan nan nan nan nan nan nan nan 7.1 nan 7.5 8.1 8.5 9.1 9.9 10.3 10.6 10.8 10.8 10.4 10.3 10.2 9.9 9.2 8.8 8.6 8.6 8.5 8.7 8.5 8.5
10.1 10.2 10.0 10.0 9.9 9.8 9.8 10.2 10.0 10.2 10.3 9.9 9.8 9.6 5.9 nan nan nan nan 7.7 7.8 8.4 8.6 8.5 9.2 9.5 10.2 9.9 10.1 9.5 10.2 10.1 10.2 9.3 9.2 8.8 8.8 8.5 8.4 8.9 9.3 6.7 6.9
10.7 4.2 8.2 10.2 10.7 10.8 11.0 10.9 11.0 10.9 11.1 10.8 10.5 10.7 9.3 7.9 8.2 8.3 8.7 7.9 8.0 8.5 8.9 8.8 8.8 8.6 8.5 8.7 8.8 9.0 9.0 9.0 9.3 9.1 9.2 9.1 9.0 8.6 9.7 8.5 8.7 9.4 8.7
10.6 11.1 3.0 11.4 10.8 10.8 10.7 11.4 12.0 11.1 11.3 10.8 11.4 10.6 nan 9.6 9.6 9.3 8.9 9.2 8.7 8.6 9.2 8.9 8.9 8.1 7.9 7.7 8.2 8.3 8.6 9.9 9.2 9.0 8.7 8.7 8.7 8.1 9.0 10.3 8.9 8.5 8.6
10.7 10.6 10.6 10.7 11.9 11.7 11.1 12.2 11.9 11.8 12.0 12.4 13.1 12.0 nan 11.4 11.0 10.8 10.4 9.4 8.8 8.9 8.5 8.1 8.1 7.8 8.1 8.4 8.7 8.9 9.5 8.8 8.5 8.9 9.7 9.5 8.8 9.1 8.8 9.8 9.5 9.8 8.8
11.7 12.6 12.3 12.4 12.4 5.2 12.0 11.3 11.8 11.7 12.0 11.2 11.4 11.7 11.2 10.1 10.6 10.9 9.4 9.3 10.1 10.3 9.8 9.6 9.7 9.7 9.8 9.2 9.5 9.6 9.5 9.1 9.0 8.0 9.5 9.2 9.4 8.7 8.8 9.0 9.2 8.9 8.8
12.9 12.7 12.6 11.0 11.5 12.3 11.5 11.2 11.8 4.3 11.4 11.0 9.5 10.1 11.7 10.9 9.7 11.0 10.5 9.9 10.4 8.6 9.6 9.3 10.1 10.1 9.5 8.2 7.5 7.5 7.3 7.1 7.4 7.6 8.0 9.4 9.5 8.9 9.7 8.9 9.2 8.9 9.7
11.6 12.2 11.9 12.1 10.3 11.2 11.4 10.6 11.7 10.4 9.9 10.6 9.8 10.9 11.1 11.5 10.9 9.4 9.6 10.2 9.8 9.9 10.3 10.3 10.0 9.8 9.7 9.5 8.6 7.9 7.2 3.0 6.8 3.0 8.4 9.6 9.1 9.0 9.3 9.3 9.3 9.7 9.7
11.8 11.6 11.5 11.3 11.5 10.9 10.6 10.7 10.5 11.3 10.4 10.2 10.5 10.4 11.0 11.0 10.7 9.9 10.1 10.1 10.7 10.5 10.1 9.8 9.7 9.9 10.0 9.8 9.6 4.0 3.0 3.0 7.9 3.0 9.2 9.9 9.6 10.1 10.2 10.1 10.3 10.0 10.2